COSMOS 2492 (754)

Last updated on Fri Jun 19 2026 17:09:56 GMT+0000 (Coordinated Universal Time)

1 39620U 14012A 26169.27664962 -.00000055 00000+0 00000+0 0 9993 2 39620 65.2971 313.8989 0010348 324.5914 35.3281 2.13103143 95269
UTC large
Height (km)
Speed (km/s)
/
Latitude / Longitude
Inclination (degrees)
Orbital Period (minutes)
Azimuth
Elevation
Range (km)
Doppler Factor

Next 0 passes for location: London (51.5072 / 0.1276)

No passes found over London.
COSMOS 2492 (754)